COSMOS 1275 DEB, 14558

Orbit data source: Space-Track

COSMOS 1275 DEB, 14558 is space debris in LEO originally from a launch on Thu, 04 Jun 1981 UTC launched from the Plesetsk Missile And Space Complex (PKMTR). Debris objects in space refer to the collection of defunct objects orbiting the Earth. Examples of debris include non-operational satellites, rocket bodies, and fragments generated from explosions, collisions, or faulty payload assembly.

Loading next visibility...
Identifier
14558, 1981-053JN
Orbit
LEO
Country
Flag of CISCIS
Related business
Manufacturer
Unknown
Mission
Spacecraft
Bus & Motor
Unknown
Mass
Unknown
Launch date (UTC)
1981-06-04 (45 years ago)
Launch vehicle
Unknown
Launch site
Plesetsk Missile And Space Complex (PKMTR)
Object type
Payload
Rocket body
Debris
Shape & HBR
Unknown shape, 0.1 m
Radar Cross Section
Small (<0.1 m²)

Expand to show TLE details & history
Last TLE update: 8 hours ago

TLE from 8 hours ago
0 COSMOS 1275 DEB
1 14558U 81053JN  26221.73937397  .00002146  00000-0  67200-3 0  9992
2 14558  82.9215 323.5379 0014236  47.4372 105.9056 14.40241359301336
Epoch: 2026-08-09T17:44Z
TLE epoch observation values (Epoch: 2026-08-09T17:44:41.911Z)
Latitude
26.31802°
Longitude
-84.37128°
Altitude
763.766 km
Speed
7.473 km/s
True Right ascension
09h 20m 08s
True Declination
26° 10' 54"
Sunlit
Object was in daylight at epoch
Visualization orbit readout
Latitude
Unknown
Longitude
Unknown
Altitude
Unknown
Speed
Unknown
Apparent Right ascension
Unknown
Apparent Declination
Unknown
Sunlit
N/A
Visualization observer readout
Local Sidereal Time
15:51:28
Azimuth
Unknown
Elevation
Unknown
Doppler factor
Unknown
Orbital elements
Apogee altitude
764.915 km
Perigee altitude
744.607 km
Semi-major axis
7,132.898 km
Eccentricity
0.00142
Inclination
82.9215°
RAAN
323.5379°
Arg. of periapsis
47.4372°
True anomaly
106.06241°
Mean anomaly
105.9056°
Eccentric anomaly
105.98401°
Mean motion
3.60283 °/min
Orbital period
99.92 mins
BSTAR
0.000672
Loading maneuver chart data...
Computing Atmospheric mass density...

Documentation

Showing up to 5 results
|